TimeEDT,TemperatureF,Dew PointF,Humidity,Sea Level PressureIn,VisibilityMPH,Wind Direction,Wind SpeedMPH,Gust SpeedMPH,PrecipitationIn,Events,Conditions,WindDirDegrees,DateUTC
12:56 AM,59.0,55.0,87,29.93,10.0,NNW,4.6,-,N/A,,Partly Cloudy,330,2013-07-28 04:56:00
1:56 AM,57.9,54.0,87,29.92,10.0,NW,4.6,-,N/A,,Partly Cloudy,310,2013-07-28 05:56:00
2:56 AM,57.0,54.0,89,29.92,10.0,WNW,5.8,-,N/A,,Clear,300,2013-07-28 06:56:00
3:56 AM,55.0,53.1,93,29.93,10.0,Calm,Calm,-,N/A,,Clear,0,2013-07-28 07:56:00
4:56 AM,55.0,52.0,89,29.94,10.0,West,4.6,-,N/A,,Partly Cloudy,280,2013-07-28 08:56:00
5:56 AM,55.0,53.1,93,29.94,10.0,SSW,4.6,-,N/A,,Scattered Clouds,210,2013-07-28 09:56:00
6:50 AM,55.4,53.6,94,29.98,9.0,WSW,6.9,-,N/A,,Mostly Cloudy,240,2013-07-28 10:50:00
6:56 AM,55.0,53.1,93,29.97,9.0,SW,6.9,-,N/A,,Mostly Cloudy,230,2013-07-28 10:56:00
7:10 AM,53.6,53.6,100,29.98,10.0,WSW,4.6,-,N/A,,Mostly Cloudy,250,2013-07-28 11:10:00
7:56 AM,57.0,52.0,83,29.99,10.0,West,8.1,-,N/A,,Partly Cloudy,260,2013-07-28 11:56:00
8:56 AM,60.1,51.1,72,30.00,10.0,West,6.9,-,N/A,,Partly Cloudy,260,2013-07-28 12:56:00
9:56 AM,63.0,48.0,58,30.00,10.0,West,11.5,-,N/A,,Partly Cloudy,260,2013-07-28 13:56:00
10:56 AM,64.9,48.9,56,30.00,10.0,WSW,19.6,25.3,N/A,,Scattered Clouds,250,2013-07-28 14:56:00
11:56 AM,68.0,50.0,52,30.01,10.0,WNW,11.5,20.7,N/A,,Scattered Clouds,290,2013-07-28 15:56:00
12:56 PM,66.9,48.9,52,30.00,10.0,West,11.5,21.9,N/A,,Mostly Cloudy,260,2013-07-28 16:56:00
1:56 PM,69.1,50.0,51,30.00,10.0,WSW,11.5,-,N/A,,Mostly Cloudy,250,2013-07-28 17:56:00
2:56 PM,70.0,51.1,51,29.99,10.0,SW,15.0,20.7,N/A,,Mostly Cloudy,220,2013-07-28 18:56:00
3:56 PM,70.0,50.0,49,30.00,10.0,WSW,15.0,-,N/A,,Mostly Cloudy,250,2013-07-28 19:56:00
4:56 PM,70.0,52.0,53,30.00,10.0,SW,11.5,-,N/A,,Mostly Cloudy,230,2013-07-28 20:56:00
5:56 PM,70.0,50.0,49,30.00,10.0,WSW,16.1,-,N/A,,Mostly Cloudy,240,2013-07-28 21:56:00
6:56 PM,69.1,51.1,53,30.01,10.0,SW,15.0,-,N/A,,Mostly Cloudy,230,2013-07-28 22:56:00
7:56 PM,68.0,52.0,56,30.03,10.0,SW,10.4,-,N/A,,Mostly Cloudy,220,2013-07-28 23:56:00
8:56 PM,66.0,53.1,63,30.04,10.0,SW,9.2,-,N/A,,Scattered Clouds,220,2013-07-29 00:56:00
9:56 PM,64.9,53.1,65,30.05,10.0,SW,8.1,-,N/A,,Mostly Cloudy,220,2013-07-29 01:56:00
10:56 PM,64.0,53.1,67,30.05,10.0,SW,8.1,-,N/A,,Scattered Clouds,220,2013-07-29 02:56:00
11:56 PM,62.1,53.1,72,30.06,10.0,SW,6.9,-,N/A,,Partly Cloudy,220,2013-07-29 03:56:00